STARLINK-35475, 65865

Orbit data source: Space-Track

STARLINK-35475, 65865 is a payload satellite owned by SpaceX/Seattle (US) in LEO that was launched on Fri, 03 Oct 2025 UTC via an FALCON 9 launch vehicle from the Air Force Western Test Range (AFWTR). Payload-class satellites include a variety of spacecraft equipped with specific instruments for various scientific and technological missions. These include communications satellites like Starlink; space stations such as the ISS; scientific satellites like the Hubble; Earth observation satellites from companies like Planet Labs, Umbra, and HawkEye 360; GPS; miniature CubeSats for education and research; and military/defense satellites.

Loading next visibility...
Identifier
65865, 2025-223M
Orbit
LEO
Country
Flag of USUS
Related business
Manufacturer
SpaceX/Seattle
Mission
Operational Commercial Communications
Bus & Motor
STARLINK V2MO, Unknown motor
Mass
575 kg wet, ~530 kg dry
Launch date (UTC)
2025-10-03 (9 months ago)
Launch vehicle
FALCON 9
Launch site
Air Force Western Test Range (AFWTR)
Object type
Payload
Rocket body
Debris
Shape & HBR
Box + 2 Pan, 17.7 m
Radar Cross Section
36.964 m², Large (>1 m²)

Expand to show TLE details & history
Last TLE update: 14 hours ago

TLE from 14 hours ago
0 STARLINK-35475
1 65865U 25223M   26171.38510811  .00012603  00000-0  38341-3 0  9992
2 65865  53.1573 176.1108 0001099  85.7892 274.3236 15.34407724 39947
Epoch: 2026-06-20T09:14Z
TLE epoch observation values (Epoch: 2026-06-20T09:14:33.340Z)
Latitude
-0.00005°
Longitude
128.87136°
Altitude
463.525 km
Speed
7.636 km/s
True Right ascension
11h 44m 26s
True Declination
0° 00' 00"
Sunlit
Object was in daylight at epoch
Visualization orbit readout
Latitude
Unknown
Longitude
Unknown
Altitude
Unknown
Speed
Unknown
Apparent Right ascension
Unknown
Apparent Declination
Unknown
Sunlit
N/A
Visualization observer readout
Local Sidereal Time
10:17:56
Azimuth
Unknown
Elevation
Unknown
Doppler factor
Unknown
Orbital elements
Apogee altitude
463.689 km
Perigee altitude
462.186 km
Semi-major axis
6,841.075 km
Eccentricity
0.00011
Inclination
53.1573°
RAAN
176.1108°
Arg. of periapsis
85.7892°
True anomaly
274.31104°
Mean anomaly
274.3236°
Eccentric anomaly
274.31732°
Mean motion
3.83581 °/min
Orbital period
93.85 mins
BSTAR
0.00038341
Loading maneuver chart data...
Computing Atmospheric mass density...
Loading historical data...
Loading historical data...
Loading historical data...
Loading historical data...
Loading historical data...
Loading historical data...
Loading historical data...

Documentation

Showing up to 5 results
|